Theta_e
324 324 324 324 326 319 324 328 324 332 335 326 331 338 343 346 348 344 347 347 347 348 346 351 347 351 351 351 351 350 349 345 342 346 346 343 340 336 335 342 346 345 344 342 342 342 343 343 343
322 324 324 317 321 325 327 324 326 326 324 331 335 335 339 347 347 347 346 346 347 348 345 349 349 350 349 350 349 348 348 345 340 347 347 346 345 339 337 341 345 345 342 338 336 338 341 340 342
323 323 320 320 318 326 328 325 324 323 320 324 339 338 341 345 346 345 344 347 347 349 347 347 349 347 347 348 347 347 348 344 342 347 347 347 346 342 337 338 345 344 341 336 332 335 338 337 339
321 319 314 317 323 322 325 322 320 320 321 324 337 346 342 343 344 347 345 346 348 350 349 348 349 347 346 347 349 346 346 346 343 344 348 349 346 345 341 338 344 343 339 336 330 332 336 336 336
320 315 319 321 322 321 320 319 320 322 322 324 340 346 347 343 344 345 345 346 347 348 347 348 349 348 347 347 347 347 345 341 344 338 347 345 346 346 345 341 338 343 341 338 331 331 333 335 337
320 313 319 321 321 320 319 318 319 321 320 320 338 345 346 343 343 343 345 345 347 347 347 347 349 350 347 347 344 341 340 338 350 342 339 345 345 345 345 341 336 339 342 338 336 330 333 335 338
320 317 319 321 321 321 322 317 320 321 321 321 322 346 341 335 344 342 344 345 348 348 348 347 347 350 346 344 343 342 342 338 347 346 341 346 344 343 345 344 341 336 339 341 338 334 331 333 337
316 314 321 319 321 322 320 319 320 320 321 318 329 339 337 336 341 343 341 344 348 348 349 348 347 347 347 346 346 346 344 342 341 346 342 344 341 340 344 344 344 342 338 341 341 337 332 334 335
314 315 316 321 321 322 318 319 319 318 319 318 317 318 327 329 342 342 340 338 344 348 349 349 348 347 348 348 345 346 346 341 340 343 342 343 342 339 338 344 343 343 343 341 341 339 333 332 332
317 313 316 320 318 319 319 320 320 320 318 319 318 318 318 319 329 340 339 338 337 341 346 348 349 349 353 349 347 345 345 344 341 342 343 345 343 341 338 337 342 340 341 341 341 340 333 332 332
318 319 319 322 321 321 321 321 320 320 320 317 318 317 315 317 316 315 316 317 327 335 339 345 348 349 350 350 348 346 343 342 342 340 341 343 344 342 340 337 342 343 341 341 341 340 336 331 332
321 319 320 321 320 319 321 320 320 319 319 317 316 315 314 314 313 313 316 318 323 326 329 332 342 348 349 349 348 348 345 344 342 340 336 341 343 343 341 340 338 339 341 340 338 338 336 334 332
320 319 319 318 318 318 317 319 320 318 315 314 314 314 313 312 312 315 319 322 324 325 326 327 333 340 345 347 348 348 346 345 343 341 338 337 338 340 341 341 340 338 336 339 339 337 336 336 332
318 318 318 318 317 317 318 318 318 317 312 312 312 311 310 313 312 318 321 322 323 323 324 325 325 326 329 337 340 342 343 343 343 342 339 338 339 339 340 341 340 337 333 333 339 338 337 336 335
318 319 317 318 317 319 317 319 319 315 311 312 311 308 315 317 319 319 320 319 317 318 319 320 321 323 324 325 326 329 335 339 340 340 341 341 341 341 340 338 336 331 334 332 337 337 336 336 335
318 316 318 318 316 315 318 319 317 312 311 312 310 307 317 316 315 314 312 309 309 310 311 312 314 320 323 324 324 324 325 328 339 340 341 341 341 340 339 338 338 335 337 337 337 337 336 334 335
316 321 320 319 316 316 315 316 314 311 311 311 308 309 315 312 307 305 303 302 302 302 302 303 303 305 309 318 322 323 324 325 326 328 334 339 340 339 338 338 339 338 336 336 337 336 336 335 334
321 322 321 319 317 315 314 314 312 312 311 308 312 311 305 301 300 300 302 303 304 304 304 304 303 302 303 305 309 318 322 322 324 325 326 327 328 330 332 335 338 339 337 336 335 336 335 334 332
320 320 317 315 314 311 314 312 310 309 309 312 307 302 299 298 298 302 303 304 304 304 304 304 305 304 303 303 304 313 319 320 321 321 325 326 327 326 329 333 333 337 337 334 334 334 334 332 332
312 313 312 310 311 309 309 310 308 304 301 302 299 298 299 300 301 303 304 305 306 306 305 304 303 304 304 302 302 307 311 319 320 320 320 323 326 328 329 331 335 336 337 334 333 333 333 331 331
311 309 308 308 308 308 308 308 310 302 299 300 299 299 300 300 301 302 304 304 304 304 304 304 304 304 304 303 303 307 309 312 317 318 321 322 324 326 328 330 333 335 336 335 332 333 332 330 328
310 306 307 306 305 306 307 307 308 302 300 300 300 300 300 300 300 301 303 304 304 304 304 304 304 303 305 303 302 304 309 311 314 316 320 323 324 326 327 329 332 334 335 335 333 332 331 331 328
307 305 306 306 305 307 305 307 304 306 305 301 301 300 300 300 300 301 302 304 303 303 303 303 304 303 304 303 302 302 310 311 312 314 318 320 324 326 327 328 332 333 334 334 333 331 332 331 328
305 304 303 302 304 305 304 305 303 305 305 302 302 301 300 300 300 301 303 303 303 303 302 303 303 304 305 307 305 305 310 312 312 316 318 321 324 325 326 327 327 332 333 333 332 331 329 329 329
303 301 303 301 301 301 303 304 303 303 302 302 302 301 300 300 300 302 303 301 302 302 303 304 304 305 306 306 307 308 309 310 311 313 317 318 324 323 324 326 327 328 331 330 329 327 328 329 329
304 302 302 305 305 302 302 304 305 301 302 302 302 301 301 300 300 301 302 300 302 302 303 302 302 302 302 302 302 303 304 307 308 312 316 318 324 322 322 326 326 327 326 326 327 328 328 328 326
303 302 302 303 301 303 303 302 303 302 303 303 302 302 299 298 299 300 301 300 301 303 302 303 301 300 300 300 301 301 301 303 305 308 313 316 321 322 321 324 325 327 327 328 328 326 327 326 325
301 301 301 301 298 304 302 299 300 304 305 303 303 301 299 298 297 299 299 299 300 303 303 303 300 300 299 299 299 300 300 301 304 308 312 314 316 321 321 323 325 327 329 329 327 326 324 324 325
303 301 301 300 300 296 298 298 299 298 299 298 299 300 298 297 296 297 298 299 299 301 303 302 300 299 299 299 299 299 300 301 304 309 311 313 315 317 320 325 325 326 326 327 327 324 323 324 323
302 301 298 300 297 296 296 299 298 297 299 301 301 301 300 299 296 296 298 298 298 299 302 302 300 299 299 299 299 299 299 300 303 307 310 312 314 317 321 324 324 325 325 323 322 322 323 322 320
Wind_Speed
5 4 1 5 4 5 1 2 2 3 2 3 3 3 5 2 1 2 7 11 2 13 20 18 16 14 12 11 11 11 10 8 8 9 10 9 8 9 9 10 9 9 7 7 8 8 8 8 9
7 3 5 3 4 3 4 3 2 2 2 0 2 2 5 2 2 2 3 12 7 16 20 20 17 16 14 13 12 12 11 9 9 10 8 8 8 6 7 8 8 8 7 7 7 9 9 7 9
3 4 3 4 3 3 3 2 3 4 4 2 2 3 1 2 1 2 4 11 9 18 20 22 21 19 17 16 13 13 11 9 10 10 9 8 7 6 7 7 7 6 4 5 6 7 7 7 8
1 6 4 4 1 2 2 2 3 7 2 7 2 3 4 2 1 3 3 12 11 15 19 20 21 18 17 16 14 13 12 11 11 11 10 11 8 7 7 7 8 6 4 4 4 5 5 4 5
5 3 4 2 3 3 2 2 3 3 2 4 2 2 3 4 3 3 8 15 14 18 18 20 19 18 18 17 15 15 14 13 13 12 12 11 11 9 8 8 8 7 6 3 4 4 4 4 4
4 3 4 2 3 3 3 3 2 2 4 3 2 1 4 5 2 3 9 11 12 12 14 17 19 18 18 18 17 16 15 15 17 14 14 14 12 11 11 9 8 9 9 6 5 5 5 5 6
5 3 4 3 2 3 2 5 2 1 3 4 1 1 3 5 4 3 7 8 11 12 14 16 19 19 19 19 18 17 16 16 16 17 15 15 13 13 13 12 10 11 11 9 7 6 6 5 5
4 4 3 2 2 3 4 6 1 4 1 6 1 2 4 3 4 6 7 9 12 13 15 17 19 21 21 21 19 19 17 17 17 19 16 16 15 16 15 14 13 12 12 11 11 8 7 7 6
2 4 0 2 3 3 4 6 2 2 1 5 3 2 5 4 1 7 6 7 12 15 16 18 20 21 22 21 19 19 19 19 18 19 18 18 18 17 17 16 16 15 13 12 12 11 9 8 8
4 3 4 3 1 2 4 1 3 4 6 3 4 2 5 3 0 4 5 10 14 16 19 21 22 23 21 23 23 19 18 20 22 21 21 21 20 19 18 18 18 17 15 15 14 13 11 11 11
2 3 2 2 2 3 2 3 2 3 4 6 5 5 8 8 5 2 4 5 5 11 17 22 25 25 25 26 26 23 21 20 22 22 23 23 23 21 19 18 19 18 17 16 16 15 13 13 14
3 2 2 3 4 5 4 3 4 4 7 4 5 5 5 8 8 7 3 2 5 9 8 8 20 24 27 27 26 25 22 21 22 24 24 24 25 24 23 22 21 22 21 21 19 18 16 15 15
1 4 5 6 9 6 4 5 4 8 9 8 8 6 7 8 9 3 7 9 9 13 14 14 10 7 16 21 25 26 26 23 25 22 24 25 27 28 28 27 25 25 24 25 23 21 19 17 17
3 5 8 5 7 2 2 3 2 2 8 11 8 10 8 9 7 10 15 17 17 14 15 13 14 11 6 7 15 20 23 25 24 24 25 26 28 28 29 27 27 27 27 27 24 22 21 20 18
3 5 7 4 6 3 1 4 2 4 9 12 12 10 10 11 21 17 18 19 18 17 17 17 16 14 13 10 7 8 14 21 26 27 26 26 27 28 26 26 27 28 25 26 25 22 23 20 19
5 4 6 4 7 5 3 6 7 7 9 10 10 8 10 13 16 21 21 21 22 22 21 20 20 18 14 13 13 12 10 12 18 24 26 26 27 26 27 25 27 27 24 27 22 26 23 21 20
7 2 3 8 4 5 7 8 8 10 7 9 8 7 9 10 15 21 22 23 24 24 25 24 24 24 22 18 16 14 12 12 14 16 20 22 23 23 24 26 27 27 25 27 24 25 25 23 20
5 4 4 5 6 7 8 11 6 8 8 8 8 8 8 10 9 17 22 23 25 27 28 27 27 27 27 25 24 20 16 15 13 14 17 20 21 23 27 30 28 26 26 24 22 24 21 16 18
4 4 6 5 6 8 4 11 10 9 9 9 8 8 8 8 8 18 21 23 24 25 25 26 28 29 30 32 30 24 21 25 22 20 17 17 19 21 21 26 30 29 27 25 24 18 17 11 19
3 4 6 8 7 7 9 15 6 10 6 7 7 8 7 7 9 15 21 23 23 23 23 24 23 23 24 27 26 22 24 13 23 23 25 22 18 16 19 22 27 29 28 26 26 26 18 14 26
3 3 4 6 6 5 7 7 4 5 5 7 7 4 6 7 8 10 16 21 23 25 26 26 25 23 21 22 23 26 26 19 17 26 27 28 23 21 18 22 26 30 29 32 31 29 28 19 27
3 5 4 9 9 4 4 6 2 2 3 4 6 7 6 7 6 5 11 18 22 24 23 24 25 25 21 21 21 19 21 22 24 24 29 30 24 24 21 21 26 30 35 33 32 32 32 29 25
4 7 6 7 6 2 5 1 5 2 2 3 6 6 7 6 6 8 12 18 20 20 21 22 21 25 24 24 20 19 19 25 27 29 27 28 28 23 21 20 24 29 30 33 34 29 27 24 24
7 5 6 4 1 2 5 2 5 2 2 2 2 5 5 6 7 7 14 16 20 23 23 24 22 23 21 24 23 19 22 26 30 31 31 26 25 26 24 20 23 28 27 28 29 27 24 26 26
7 8 5 5 4 4 2 5 7 2 2 3 4 8 7 7 7 7 7 14 20 22 22 20 21 23 23 25 25 22 21 23 24 24 25 26 23 27 24 23 23 28 26 26 25 23 24 25 26
2 3 3 6 3 11 12 6 5 3 4 6 7 8 6 7 7 7 8 14 16 17 18 21 22 23 25 26 27 28 25 22 24 23 27 27 25 27 25 23 22 23 23 22 21 25 27 27 23
4 3 2 4 5 3 4 6 3 2 8 8 7 7 9 8 8 7 9 15 15 15 15 18 23 25 27 29 29 31 31 31 33 32 30 27 26 28 25 22 21 22 22 23 27 28 26 24 22
5 3 2 1 4 5 5 9 9 4 8 10 10 10 9 7 8 7 9 13 14 15 14 13 18 22 26 30 30 31 32 29 30 30 29 29 27 26 23 19 21 23 22 25 27 22 20 19 18
3 3 3 1 1 3 6 6 4 9 15 13 12 10 9 9 8 7 10 11 13 14 15 12 15 20 27 31 34 34 33 31 31 29 31 28 28 24 14 12 18 18 18 18 23 24 23 21 24
4 4 4 2 6 4 4 17 15 11 7 13 17 14 11 8 8 7 12 13 16 16 18 18 17 18 24 30 32 32 35 32 31 31 30 29 27 21 10 8 14 16 17 22 25 26 23 27 29
Wind_Direction
19 2 13 41 54 67 326 258 283 295 360 343 312 97 126 111 99 207 340 165 153 176 178 183 183 179 180 178 179 180 181 176 173 165 160 149 146 142 137 133 137 135 121 109 103 105 101 81 64
358 349 46 77 82 66 276 274 231 265 360 84 49 16 43 71 180 248 144 184 168 180 181 186 186 189 185 188 190 189 194 193 185 179 172 162 158 147 142 142 141 142 133 126 122 130 129 106 79
18 36 76 92 112 157 194 236 281 300 9 345 56 54 43 360 297 235 223 194 181 188 189 190 190 193 192 199 197 199 202 200 200 192 187 183 180 169 161 156 155 155 140 133 135 136 135 120 100
58 19 41 81 164 247 222 341 315 329 353 35 13 39 329 315 237 249 234 178 176 186 194 196 197 200 201 205 204 207 210 211 208 204 209 201 203 192 182 175 170 173 167 153 157 138 135 122 100
46 61 55 65 283 267 261 290 333 349 353 3 330 230 266 326 288 242 176 176 181 186 195 199 204 206 207 210 213 215 218 212 211 207 202 211 213 209 203 198 188 186 190 184 186 162 148 137 101
38 86 67 193 249 270 292 8 294 20 345 332 65 162 270 310 260 172 175 190 190 193 196 201 205 211 215 218 221 222 220 215 218 214 208 218 213 218 214 211 205 195 199 211 206 189 173 155 135
114 90 190 184 254 307 289 338 49 38 328 322 271 240 277 310 230 216 200 202 198 207 206 207 211 217 223 227 229 227 226 221 219 221 222 220 216 227 223 220 217 209 211 216 211 207 199 185 169
103 87 132 237 210 260 343 352 33 49 323 318 153 295 308 312 260 216 213 213 214 218 220 220 219 222 226 229 232 233 229 233 224 228 228 223 229 227 231 226 223 223 220 216 220 215 215 201 195
114 57 246 248 138 295 3 23 325 311 329 345 310 276 286 326 166 194 201 223 226 232 233 234 231 230 231 234 240 242 239 240 234 235 237 232 233 234 232 232 234 228 229 226 227 230 221 216 218
81 101 223 226 262 323 317 359 318 360 344 301 301 284 350 8 298 193 215 226 230 235 239 240 241 239 237 239 242 244 249 248 240 239 242 238 240 243 243 240 239 238 234 234 233 234 227 214 219
144 172 217 285 300 343 294 298 311 337 305 229 277 291 326 326 291 360 281 273 253 249 247 247 247 246 242 245 245 245 246 250 251 244 242 243 244 246 244 241 239 242 242 240 241 237 231 223 226
356 278 247 298 9 344 300 301 302 213 249 319 277 287 294 298 306 326 132 80 40 29 14 286 247 246 250 252 252 250 250 250 248 247 245 244 244 245 246 247 244 243 240 241 242 242 238 228 226
36 326 322 306 303 258 302 263 256 281 321 318 314 312 306 297 289 66 93 59 36 29 23 22 13 277 255 253 253 251 252 249 251 254 251 246 249 250 250 250 249 248 245 240 237 240 240 233 229
313 300 295 303 311 304 286 279 175 48 335 347 9 7 16 20 15 49 43 40 35 27 23 17 20 21 6 282 266 260 257 248 247 250 251 253 250 250 254 254 253 250 245 244 241 243 243 239 226
327 339 329 23 340 339 215 347 248 336 352 358 341 16 50 41 52 51 50 42 26 26 26 24 11 7 7 357 329 293 268 261 261 257 251 249 253 254 256 254 250 246 246 243 241 242 246 242 233
25 47 12 325 360 348 51 270 286 333 18 329 356 25 63 50 50 48 51 49 43 38 33 31 24 17 5 358 347 323 294 277 264 264 263 256 253 253 252 252 248 244 242 243 242 237 236 239 230
12 346 339 316 45 12 56 273 274 316 337 313 20 51 62 54 43 41 46 45 42 38 34 30 24 19 11 3 352 340 328 300 278 269 269 263 260 257 255 247 254 249 245 249 238 232 228 228 226
289 313 284 255 292 346 304 274 286 304 304 33 52 64 58 55 31 32 39 40 39 37 35 30 24 19 11 4 360 349 340 333 316 290 286 285 274 265 259 254 253 251 247 243 242 241 227 229 226
262 254 274 259 289 328 262 289 290 304 43 52 49 46 48 35 353 34 33 30 27 26 23 21 19 15 11 7 360 355 340 330 331 329 311 297 292 276 264 255 254 246 238 230 231 238 223 206 194
307 299 304 299 339 344 298 303 18 40 43 50 48 35 24 15 3 1 9 13 13 9 8 6 7 6 7 3 358 352 340 319 320 332 327 314 297 292 271 256 246 239 237 223 213 214 188 186 184
28 11 324 279 299 252 325 294 123 32 55 36 31 15 17 3 350 352 356 5 5 4 360 354 350 352 355 358 358 352 350 330 335 328 325 325 316 300 288 263 251 243 239 230 213 212 196 179 185
306 339 281 312 349 306 87 280 113 78 76 38 15 17 7 349 339 326 338 346 354 351 353 348 348 344 342 345 353 359 341 327 327 322 318 313 311 304 298 266 251 245 238 227 218 210 196 186 177
282 324 279 260 229 360 360 329 279 240 331 360 10 352 333 329 329 333 333 341 336 348 352 348 346 344 341 337 336 340 343 332 320 336 314 309 302 306 302 276 248 237 227 220 219 206 195 184 173
309 318 289 13 79 278 165 130 275 242 260 239 283 296 304 314 313 313 334 335 341 356 357 356 351 349 348 343 335 338 330 332 333 338 313 300 303 315 308 285 253 234 227 222 220 213 197 194 190
24 28 335 336 354 276 210 347 252 230 294 202 243 278 285 299 305 309 323 334 338 351 356 360 0 356 355 353 348 344 335 332 332 315 299 305 300 311 307 290 252 236 222 208 194 194 190 190 192
360 120 170 276 267 291 314 256 275 215 250 274 277 283 300 295 286 302 318 333 343 352 356 359 358 353 351 347 343 340 337 325 329 320 308 306 302 307 305 283 246 222 199 197 194 182 178 176 179
321 61 156 260 266 277 238 299 295 311 297 286 291 313 300 295 298 305 319 326 332 335 347 349 353 354 357 349 342 338 332 334 329 327 319 319 313 314 306 280 240 221 213 203 190 185 179 175 164
127 220 333 348 308 299 304 303 277 306 287 295 295 292 284 291 308 303 299 314 324 328 326 340 354 351 358 357 351 341 330 331 328 326 318 323 326 325 305 267 228 217 197 196 188 178 168 161 153
353 315 67 100 123 242 303 272 227 310 304 305 294 268 271 279 283 278 277 300 314 313 314 318 331 342 351 350 348 343 337 334 331 331 329 324 329 327 310 237 212 203 181 186 184 173 155 160 153
183 168 109 125 285 227 245 275 275 275 293 305 300 285 277 281 281 284 285 299 306 305 303 306 316 335 345 347 344 338 341 332 336 337 328 325 325 321 298 235 187 184 189 169 156 149 152 152 148